Houston / Dunn Helistop, TX

5:06 AM CDT on March 25, 2017 (GMT -0500)
Houston / Dunn Helistop

Weather History for KMCJ - November, 2012

Change the Weather History Date:

Friday, November 23, 2012

  Actual Average (KHOU) Record (KHOU)
Temperature  
Mean Temperature 71 °F -  
Max Temperature 80 °F 68 °F 85 °F (1973)
Min Temperature 60 °F 49 °F 24 °F (1975)
Cooling Degree Days 6    
Growing Degree Days 21 (Base 50)    
Moisture  
Dew Point 58 °F    
Average Humidity 70    
Maximum Humidity 88    
Minimum Humidity 48    
Precipitation  
Precipitation 0.00 in - - ()
Sea Level Pressure  
Sea Level Pressure 30.19 in    
Wind  
Wind Speed 7 mph (North)    
Max Wind Speed 20 mph    
Max Gust Speed 25 mph    
Visibility 9 miles    
Events      
Averages and records for this station are not official NWS values.
T = Trace of Precipitation, MM = Missing Value Source: NWS Daily Summary

Daily Weather History Graph

Daily Weather History Graph

Search for Another Location

Airport or City:

Trip Planner

Search our weather history database for the weather conditions in past years. The results will help you decide how hot, cold, wet, or windy it might be!

Date:

Astronomy

Nov. 23, 2012 Rise Set
Actual Time 6:53 AM CST 5:22 PM CST
Civil Twilight 6:27 AM CST 5:48 PM CST
Nautical Twilight 5:58 AM CST 6:17 PM CST
Astronomical Twilight 5:29 AM CST 6:46 PM CST
Moon 2:22 PM CST (11/23) 2:30 AM CST (11/23)
Length of Visible Light 11h 21m
Length of Day
10h 29m
Waxing Gibbous, 80% of the Moon is Illuminated
Nov 23
Waxing Gibbous
Nov 28
Full
Dec 6
Last Quarter
Dec 13
New
Dec 19
First Quarter

Hourly Weather History & Observations

Time (CST) Temp. Heat Index Dew Point Humidity Pressure Visibility Wind Dir Wind Speed Gust Speed Precip Events Conditions
12:15 AM 64.4 °F - 59.0 °F 83% 30.12 in 6.0 mi South 6.9 mph - N/A   Clear
12:35 AM 64.4 °F - 59.0 °F 83% 30.12 in 8.0 mi South 6.9 mph - N/A   Clear
12:55 AM 64.4 °F - 59.0 °F 83% 30.12 in 10.0 mi South 10.4 mph - N/A   Clear
1:15 AM 64.4 °F - 59.0 °F 83% 30.12 in 10.0 mi South 8.1 mph - N/A   Clear
1:35 AM 64.4 °F - 59.0 °F 83% 30.12 in 10.0 mi South 9.2 mph - N/A   Clear
1:55 AM 64.4 °F - 59.0 °F 83% 30.12 in 10.0 mi South 6.9 mph - N/A   Clear
2:15 AM 66.2 °F - 59.0 °F 78% 30.13 in 10.0 mi South 5.8 mph - N/A   Clear
2:35 AM 66.2 °F - 59.0 °F 78% 30.13 in 10.0 mi South 6.9 mph - N/A   Scattered Clouds
2:55 AM 66.2 °F - 59.0 °F 78% 30.13 in 10.0 mi South 4.6 mph - N/A   Mostly Cloudy
3:15 AM 66.2 °F - 59.0 °F 78% 30.13 in 10.0 mi SSW 4.6 mph - N/A   Overcast
3:35 AM 66.2 °F - 59.0 °F 78% 30.13 in 10.0 mi SSW 4.6 mph - N/A   Overcast
3:55 AM 66.2 °F - 59.0 °F 78% 30.13 in 10.0 mi South 5.8 mph - N/A   Mostly Cloudy
4:15 AM 66.2 °F - 59.0 °F 78% 30.13 in 10.0 mi SSW 4.6 mph - N/A   Partly Cloudy
4:35 AM 66.2 °F - 59.0 °F 78% 30.13 in 10.0 mi South 4.6 mph - N/A   Mostly Cloudy
4:55 AM 66.2 °F - 59.0 °F 78% 30.13 in 10.0 mi South 5.8 mph - N/A   Overcast
5:15 AM 66.2 °F - 59.0 °F 78% 30.14 in 10.0 mi South 5.8 mph - N/A   Overcast
5:35 AM 66.2 °F - 59.0 °F 78% 30.14 in 10.0 mi SSW 4.6 mph - N/A   Overcast
5:55 AM 66.2 °F - 59.0 °F 78% 30.15 in 10.0 mi SSW 5.8 mph - N/A   Overcast
6:15 AM 66.2 °F - 59.0 °F 78% 30.16 in 10.0 mi South 4.6 mph - N/A   Overcast
6:35 AM 66.2 °F - 59.0 °F 78% 30.16 in 10.0 mi South 3.5 mph - N/A   Mostly Cloudy
6:55 AM 66.2 °F - 59.0 °F 78% 30.17 in 10.0 mi SSW 3.5 mph - N/A   Mostly Cloudy
7:15 AM 68.0 °F - 59.0 °F 73% 30.17 in 10.0 mi SW 4.6 mph - N/A   Overcast
7:35 AM 68.0 °F - 59.0 °F 73% 30.18 in 10.0 mi Calm Calm - N/A   Overcast
7:55 AM 68.0 °F - 57.2 °F 68% 30.18 in 10.0 mi SW 6.9 mph - N/A   Mostly Cloudy
8:15 AM 68.0 °F - 59.0 °F 73% 30.19 in 10.0 mi Calm Calm - N/A   Mostly Cloudy
8:35 AM 69.8 °F - 59.0 °F 68% 30.20 in 10.0 mi Calm Calm - N/A   Mostly Cloudy
8:55 AM 69.8 °F - 59.0 °F 68% 30.20 in 10.0 mi Calm Calm - N/A   Mostly Cloudy
9:15 AM 71.6 °F - 59.0 °F 64% 30.21 in 10.0 mi Calm Calm - N/A   Mostly Cloudy
9:35 AM 71.6 °F - 59.0 °F 64% 30.21 in 10.0 mi Calm Calm - N/A   Mostly Cloudy
9:55 AM 73.4 °F - 59.0 °F 61% 30.22 in 10.0 mi Calm Calm - N/A   Mostly Cloudy
10:15 AM 73.4 °F - 59.0 °F 61% 30.22 in 10.0 mi Calm Calm - N/A   Mostly Cloudy
10:35 AM 75.2 °F - 59.0 °F 57% 30.22 in 10.0 mi SW 3.5 mph - N/A   Mostly Cloudy
10:55 AM 77.0 °F - 59.0 °F 54% 30.21 in 10.0 mi WSW 4.6 mph - N/A   Mostly Cloudy
11:15 AM 77.0 °F - 59.0 °F 54% 30.21 in 10.0 mi WSW 6.9 mph - N/A   Mostly Cloudy
11:35 AM 77.0 °F - 59.0 °F 54% 30.21 in 10.0 mi SW 6.9 mph - N/A   Mostly Cloudy
11:55 AM 80.6 °F 81.1 °F 59.0 °F 48% 30.20 in 10.0 mi WSW 3.5 mph - N/A   Mostly Cloudy
12:15 PM 78.8 °F - 59.0 °F 51% 30.19 in 10.0 mi West 6.9 mph - N/A   Mostly Cloudy
12:35 PM 78.8 °F - 59.0 °F 51% 30.18 in 10.0 mi WNW 5.8 mph - N/A   Mostly Cloudy
12:55 PM 78.8 °F - 60.8 °F 54% 30.17 in 10.0 mi WNW 6.9 mph - N/A   Mostly Cloudy
1:15 PM 77.0 °F - 60.8 °F 57% 30.17 in 10.0 mi WNW 9.2 mph - N/A   Overcast
1:35 PM 75.2 °F - 62.6 °F 65% 30.17 in 10.0 mi NNW 4.6 mph - N/A   Overcast
1:55 PM 75.2 °F - 62.6 °F 65% 30.16 in 10.0 mi North 3.5 mph - N/A   Mostly Cloudy
2:15 PM 73.4 °F - 62.6 °F 69% 30.16 in 10.0 mi NNE 11.5 mph - N/A   Mostly Cloudy
2:35 PM 73.4 °F - 64.4 °F 73% 30.16 in 9.0 mi North 9.2 mph - N/A   Overcast
2:55 PM 73.4 °F - 62.6 °F 69% 30.16 in 10.0 mi North 10.4 mph 16.1 mph N/A   Overcast
3:15 PM 73.4 °F - 62.6 °F 69% 30.17 in 10.0 mi North 11.5 mph - N/A   Overcast
3:35 PM 73.4 °F - 62.6 °F 69% 30.17 in 10.0 mi NNE 10.4 mph 16.1 mph N/A   Mostly Cloudy
3:55 PM 71.6 °F - 62.6 °F 73% 30.17 in 10.0 mi NNE 16.1 mph - N/A   Overcast
4:15 PM 71.6 °F - 62.6 °F 73% 30.17 in 9.0 mi NNE 17.3 mph 23.0 mph N/A   Overcast
4:35 PM 69.8 °F - 60.8 °F 73% 30.19 in 7.0 mi NE 12.7 mph 21.9 mph N/A   Overcast
4:55 PM 68.0 °F - 59.0 °F 73% 30.20 in 5.0 mi NNE 15.0 mph - N/A   Overcast
5:15 PM 68.0 °F - 59.0 °F 73% 30.20 in 5.0 mi NNE 13.8 mph 20.7 mph N/A   Overcast
5:35 PM 68.0 °F - 59.0 °F 73% 30.21 in 7.0 mi NNE 13.8 mph - N/A   Overcast
5:55 PM 68.0 °F - 59.0 °F 73% 30.22 in 7.0 mi NNE 12.7 mph 18.4 mph N/A   Overcast
6:15 PM 66.2 °F - 57.2 °F 73% 30.22 in 8.0 mi NE 10.4 mph 18.4 mph N/A   Overcast
6:35 PM 66.2 °F - 57.2 °F 73% 30.23 in 8.0 mi NNE 12.7 mph 24.2 mph N/A   Overcast
6:55 PM 66.2 °F - 57.2 °F 73% 30.25 in 8.0 mi NNE 13.8 mph 23.0 mph N/A   Overcast
7:15 PM 66.2 °F - 57.2 °F 73% 30.25 in 8.0 mi NE 8.1 mph 16.1 mph N/A   Overcast
7:35 PM 66.2 °F - 59.0 °F 78% 30.25 in 7.0 mi NNE 19.6 mph 25.3 mph N/A   Overcast
7:55 PM 62.6 °F - 59.0 °F 88% 30.26 in 4.0 mi NNE 15.0 mph 24.2 mph N/A   Overcast
8:15 PM 62.6 °F - 59.0 °F 88% 30.26 in 3.0 mi NNE 15.0 mph 21.9 mph N/A   Overcast
8:35 PM 62.6 °F - 57.2 °F 82% 30.27 in 5.0 mi NNE 11.5 mph 23.0 mph N/A   Overcast
8:55 PM 62.6 °F - 57.2 °F 82% 30.28 in 3.0 mi NNE 16.1 mph - N/A   Overcast
9:15 PM 62.6 °F - 57.2 °F 82% 30.28 in 6.0 mi NNE 16.1 mph 24.2 mph N/A   Overcast
9:35 PM 62.6 °F - 51.8 °F 68% 30.29 in 10.0 mi NE 11.5 mph 21.9 mph N/A   Overcast
9:55 PM 62.6 °F - 48.2 °F 59% 30.29 in 10.0 mi NNE 12.7 mph - N/A   Overcast
10:15 PM 62.6 °F - 46.4 °F 55% 30.29 in 10.0 mi NNE 15.0 mph 23.0 mph N/A   Overcast
10:35 PM 62.6 °F - 46.4 °F 55% 30.29 in 10.0 mi NNE 9.2 mph - N/A   Overcast
10:55 PM 62.6 °F - 46.4 °F 55% 30.30 in 10.0 mi North 9.2 mph - N/A   Overcast
11:15 PM 62.6 °F - 46.4 °F 55% 30.30 in 10.0 mi NNE 10.4 mph - N/A   Overcast
11:35 PM 62.6 °F - 46.4 °F 55% 30.29 in 10.0 mi NNE 13.8 mph - N/A   Overcast
11:55 PM 60.8 °F - 48.2 °F 63% 30.30 in 10.0 mi NNE 11.5 mph - N/A   Overcast